| time (UTC) | temp C | wind direction | speed KPH | gust KPH | rain 1hr cm | rain 24hr cm | rain mn cm | humidity % | barometer mb |
| 20260508103024 | 13 | 12 | 6.4 | 12.9 | 0.00 | 0.00 | 0.00 | 49 | 1022.9 |
| 20260508102108 | 13 | 15 | 4.8 | 12.9 | 0.00 | 0.00 | 0.00 | 49 | 1022.8 |
| 20260508101113 | 13 | 232 | 3.2 | 16.1 | 0.00 | 0.00 | 0.00 | 52 | 1022.9 |
| 20260508100051 | 12 | 312 | 1.6 | 20.9 | 0.00 | 0.00 | 0.00 | 54 | 1022.9 |
| 20260508095048 | 12 | 140 | 3.2 | 6.4 | 0.00 | 0.00 | 0.00 | 57 | 1022.9 |
| 20260508094113 | 11 | 4 | 1.6 | 8.0 | 0.00 | 0.00 | 0.00 | 60 | 1022.9 |
| 20260508093053 | 11 | 83 | 4.8 | 8.0 | 0.00 | 0.00 | 0.00 | 58 | 1022.9 |
| 20260508092057 | 11 | 139 | 4.8 | 12.9 | 0.00 | 0.00 | 0.00 | 56 | 1023.0 |
| 20260508091122 | 12 | 355 | 3.2 | 11.3 | 0.00 | 0.00 | 0.00 | 53 | 1022.9 |
| 20260508090040 | 12 | 299 | 3.2 | 9.7 | 0.00 | 0.00 | 0.00 | 54 | 1023.0 |
| 20260508085104 | 12 | 5 | 3.2 | 9.7 | 0.00 | 0.00 | 0.00 | 56 | 1022.9 |
| 20260508084023 | 12 | 197 | 1.6 | 4.8 | 0.00 | 0.00 | 0.00 | 58 | 1022.9 |
| 20260508083047 | 11 | 6 | 1.6 | 9.7 | 0.00 | 0.00 | 0.00 | 60 | 1022.9 |
| 20260508082112 | 11 | 164 | 0.0 | 6.4 | 0.00 | 0.00 | 0.00 | 60 | 1022.8 |
| 20260508081026 | 11 | 314 | 1.6 | 6.4 | 0.00 | 0.00 | 0.00 | 60 | 1022.8 |
| 20260508080049 | 11 | 145 | 1.6 | 6.4 | 0.00 | 0.00 | 0.00 | 60 | 1022.8 |
| 20260508075155 | 10 | 344 | 3.2 | 8.0 | 0.00 | 0.00 | 0.00 | 63 | 1022.6 |
| 20260508074035 | 11 | 26 | 3.2 | 11.3 | 0.00 | 0.00 | 0.00 | 61 | 1022.7 |
| 20260508073056 | 10 | 24 | 3.2 | 6.4 | 0.00 | 0.00 | 0.00 | 63 | 1022.7 |
| 20260508072119 | 10 | 14 | 3.2 | 8.0 | 0.00 | 0.00 | 0.00 | 64 | 1022.6 |
| 20260508071032 | 10 | 30 | 3.2 | 11.3 | 0.00 | 0.00 | 0.00 | 63 | 1022.5 |
| 20260508070056 | 10 | 20 | 0.0 | 6.4 | 0.00 | 0.00 | 0.00 | 66 | 1022.5 |
| 20260508065120 | 10 | 52 | 3.2 | 6.4 | 0.00 | 0.00 | 0.00 | 67 | 1022.4 |
| 20260508064032 | 10 | 24 | 1.6 | 6.4 | 0.00 | 0.00 | 0.00 | 70 | 1022.3 |
| 20260508063047 | 9 | 25 | 1.6 | 4.8 | 0.00 | 0.00 | 0.00 | 77 | 1022.4 |
| 20260508062112 | 8 | 344 | 0.0 | 6.4 | 0.00 | 0.00 | 0.00 | 83 | 1022.3 |
| 20260508061031 | 8 | 324 | 1.6 | 6.4 | 0.00 | 0.00 | 0.00 | 82 | 1022.2 |
| 20260508060056 | 8 | 313 | 1.6 | 4.8 | 0.00 | 0.00 | 0.00 | 83 | 1022.1 |
| 20260508055121 | 7 | 312 | 1.6 | 4.8 | 0.00 | 0.00 | 0.00 | 85 | 1022.1 |
| 20260508054052 | 7 | 0.0 | 4.8 | 0.00 | 0.00 | 0.00 | 88 | 1022.0 | |
| 20260508053057 | 6 | 290 | 0.0 | 4.8 | 0.00 | 0.00 | 0.00 | 88 | 1021.8 |
| 20260508052119 | 7 | 262 | 0.0 | 3.2 | 0.00 | 0.00 | 0.00 | 89 | 1021.8 |
| 20260508051039 | 6 | 326 | 1.6 | 4.8 | 0.00 | 0.00 | 0.00 | 89 | 1021.9 |
| 20260508050103 | 6 | 294 | 1.6 | 3.2 | 0.00 | 0.00 | 0.00 | 89 | 1021.8 |
| 20260508045027 | 6 | 301 | 1.6 | 4.8 | 0.00 | 0.00 | 0.00 | 89 | 1021.9 |
| 20260508044129 | 7 | 249 | 1.6 | 3.2 | 0.00 | 0.00 | 0.00 | 90 | 1021.8 |
| 20260508043112 | 6 | 47 | 0.0 | 3.2 | 0.00 | 0.00 | 0.00 | 90 | 1021.7 |
| 20260508042032 | 6 | 244 | 0.0 | 3.2 | 0.00 | 0.00 | 0.00 | 91 | 1021.6 |
| 20260508041057 | 6 | 0.0 | 4.8 | 0.00 | 0.00 | 0.00 | 91 | 1021.7 | |
| 20260508040120 | 5 | 12 | 1.6 | 8.0 | 0.00 | 0.00 | 0.00 | 91 | 1021.6 |
| 20260508035040 | 5 | 11 | 1.6 | 3.2 | 0.00 | 0.00 | 0.00 | 91 | 1021.5 |
| 20260508034124 | 5 | 0.0 | 3.2 | 0.00 | 0.00 | 0.00 | 91 | 1021.4 | |
| 20260508033023 | 5 | 0.0 | 4.8 | 0.00 | 0.00 | 0.00 | 91 | 1021.1 | |
| 20260508032048 | 5 | 35 | 0.0 | 4.8 | 0.00 | 0.00 | 0.00 | 91 | 1021.1 |
| 20260508031112 | 5 | 74 | 1.6 | 3.2 | 0.00 | 0.00 | 0.00 | 91 | 1021.1 |
| 20260508030036 | 5 | 26 | 1.6 | 4.8 | 0.00 | 0.00 | 0.00 | 91 | 1021.1 |
| 20260508025056 | 5 | 27 | 1.6 | 4.8 | 0.00 | 0.00 | 0.00 | 91 | 1021.1 |
| 20260508024112 | 5 | 340 | 0.0 | 8.0 | 0.00 | 0.00 | 0.00 | 90 | 1021.0 |
| 20260508023032 | 5 | 357 | 1.6 | 3.2 | 0.00 | 0.00 | 0.00 | 90 | 1021.2 |
| 20260508022057 | 5 | 350 | 1.6 | 4.8 | 0.00 | 0.00 | 0.00 | 91 | 1021.0 |
| 20260508021119 | 5 | 0.0 | 3.2 | 0.00 | 0.00 | 0.00 | 91 | 1021.0 | |
| 20260508020039 | 5 | 6 | 3.2 | 4.8 | 0.00 | 0.00 | 0.00 | 92 | 1021.0 |
| 20260508015104 | 5 | 40 | 1.6 | 4.8 | 0.00 | 0.00 | 0.00 | 92 | 1021.0 |
| 20260508014023 | 5 | 31 | 1.6 | 3.2 | 0.00 | 0.00 | 0.00 | 92 | 1020.9 |
| 20260508013150 | 5 | 13 | 1.6 | 4.8 | 0.00 | 0.00 | 0.00 | 91 | 1020.9 |
| 20260508012112 | 5 | 31 | 3.2 | 4.8 | 0.00 | 0.00 | 0.00 | 91 | 1021.0 |
| 20260508011032 | 5 | 26 | 1.6 | 3.2 | 0.00 | 0.00 | 0.00 | 91 | 1020.9 |
| 20260508010056 | 6 | 353 | 0.0 | 3.2 | 0.00 | 0.00 | 0.00 | 91 | 1020.8 |
| 20260508005119 | 6 | 121 | 0.0 | 3.2 | 0.00 | 0.00 | 0.00 | 91 | 1020.9 |
| 20260508004039 | 6 | 155 | 0.0 | 3.2 | 0.00 | 0.00 | 0.00 | 91 | 1020.7 |
| 20260508003103 | 6 | 194 | 1.6 | 3.2 | 0.00 | 0.00 | 0.00 | 91 | 1020.7 |
| 20260508002024 | 6 | 0.0 | 3.2 | 0.00 | 0.00 | 0.00 | 91 | 1020.8 | |
| 20260508001048 | 6 | 0.0 | 1.6 | 0.00 | 0.00 | 0.00 | 91 | 1020.8 | |
| 20260508000132 | 6 | 0.0 | 1.6 | 0.00 | 0.00 | 0.00 | 91 | 1020.8 | |
| 20260507235031 | 6 | 0.0 | 0.0 | 0.00 | 0.00 | 0.00 | 91 | 1020.8 | |
| 20260507234055 | 6 | 210 | 0.0 | 1.6 | 0.00 | 0.00 | 0.00 | 92 | 1020.7 |
| 20260507233140 | 6 | 20 | 0.0 | 1.6 | 0.00 | 0.00 | 0.00 | 92 | 1020.6 |
| 20260507232040 | 5 | 232 | 1.6 | 3.2 | 0.00 | 0.00 | 0.00 | 92 | 1020.5 |
| 20260507231104 | 5 | 0.0 | 3.2 | 0.00 | 0.00 | 0.00 | 92 | 1020.4 | |
| 20260507230023 | 5 | 26 | 1.6 | 4.8 | 0.00 | 0.00 | 0.00 | 92 | 1020.5 |
| 20260507225107 | 5 | 11 | 1.6 | 6.4 | 0.00 | 0.00 | 0.00 | 91 | 1020.5 |
| 20260507224111 | 5 | 346 | 4.8 | 6.4 | 0.00 | 0.00 | 0.00 | 91 | 1020.6 |
| 20260507223031 | 5 | 8 | 3.2 | 4.8 | 0.00 | 0.00 | 0.00 | 90 | 1020.7 |
| 20260507222055 | 6 | 45 | 1.6 | 3.2 | 0.00 | 0.00 | 0.00 | 89 | 1020.8 |
| 20260507221119 | 6 | 0.0 | 1.6 | 0.00 | 0.03 | 0.00 | 91 | 1020.8 | |
| 20260507220039 | 5 | 226 | 0.0 | 3.2 | 0.00 | 0.03 | 0.00 | 91 | 1020.6 |
| 20260507215104 | 5 | 336 | 0.0 | 3.2 | 0.00 | 0.03 | 0.00 | 91 | 1020.5 |
| 20260507214023 | 6 | 0.0 | 1.6 | 0.00 | 0.03 | 0.00 | 92 | 1020.6 | |
| 20260507213109 | 5 | 165 | 0.0 | 3.2 | 0.00 | 0.03 | 0.00 | 92 | 1020.6 |
| 20260507212112 | 5 | 0.0 | 4.8 | 0.00 | 0.03 | 0.00 | 92 | 1020.3 | |
| 20260507211033 | 5 | 298 | 0.0 | 3.2 | 0.00 | 0.03 | 0.00 | 92 | 1020.3 |
| 20260507210055 | 5 | 222 | 0.0 | 3.2 | 0.00 | 0.03 | 0.00 | 92 | 1020.0 |
| 20260507205120 | 5 | 48 | 0.0 | 3.2 | 0.00 | 0.03 | 0.00 | 92 | 1020.0 |
| 20260507204101 | 5 | 218 | 0.0 | 3.2 | 0.00 | 0.03 | 0.00 | 92 | 1019.9 |
| 20260507203103 | 5 | 0.0 | 3.2 | 0.00 | 0.03 | 0.00 | 92 | 1019.9 | |
| 20260507202024 | 5 | 0.0 | 1.6 | 0.00 | 0.03 | 0.00 | 91 | 1019.9 | |
| 20260507201049 | 5 | 0.0 | 1.6 | 0.00 | 0.03 | 0.00 | 91 | 1019.8 | |
| 20260507200047 | 5 | 0.0 | 3.2 | 0.00 | 0.03 | 0.00 | 91 | 1019.6 | |
| 20260507195112 | 5 | 0.0 | 3.2 | 0.00 | 0.05 | 0.00 | 91 | 1019.6 | |
| 20260507194031 | 5 | 255 | 0.0 | 3.2 | 0.00 | 0.05 | 0.00 | 90 | 1019.2 |
| 20260507193056 | 5 | 314 | 0.0 | 3.2 | 0.00 | 0.05 | 0.00 | 90 | 1019.2 |
| 20260507192107 | 5 | 0.0 | 0.0 | 0.00 | 0.05 | 0.00 | 89 | 1019.2 | |
| 20260507191024 | 5 | 0.0 | 1.6 | 0.00 | 0.05 | 0.00 | 89 | 1019.1 | |
| 20260507190048 | 5 | 0.0 | 3.2 | 0.00 | 0.05 | 0.00 | 88 | 1019.1 | |
| 20260507185112 | 5 | 0.0 | 3.2 | 0.00 | 0.08 | 0.00 | 87 | 1019.0 | |
| 20260507184033 | 6 | 336 | 1.6 | 4.8 | 0.00 | 0.08 | 0.00 | 85 | 1018.9 |
| 20260507183057 | 6 | 318 | 1.6 | 4.8 | 0.00 | 0.08 | 0.00 | 82 | 1018.9 |
| 20260507182142 | 7 | 0.0 | 4.8 | 0.00 | 0.08 | 0.00 | 81 | 1018.7 | |
| 20260507181032 | 6 | 337 | 4.8 | 9.7 | 0.00 | 0.10 | 0.00 | 80 | 1018.7 |
| 20260507180056 | 7 | 333 | 1.6 | 4.8 | 0.00 | 0.10 | 0.00 | 78 | 1018.7 |
| 20260507175140 | 7 | 300 | 0.0 | 6.4 | 0.00 | 0.13 | 0.00 | 77 | 1018.6 |
| 20260507174039 | 7 | 331 | 1.6 | 9.7 | 0.00 | 0.13 | 0.00 | 74 | 1018.5 |
| 20260507173056 | 7 | 1 | 1.6 | 6.4 | 0.00 | 0.15 | 0.00 | 74 | 1018.4 |
| 20260507172119 | 8 | 11 | 1.6 | 6.4 | 0.00 | 0.15 | 0.00 | 72 | 1018.3 |
| 20260507171054 | 8 | 25 | 3.2 | 8.0 | 0.00 | 0.15 | 0.00 | 70 | 1018.3 |
| 20260507170056 | 8 | 341 | 1.6 | 8.0 | 0.00 | 0.15 | 0.00 | 68 | 1018.2 |
| 20260507165120 | 8 | 345 | 3.2 | 9.7 | 0.00 | 0.18 | 0.00 | 68 | 1018.3 |
| 20260507164040 | 9 | 338 | 1.6 | 8.0 | 0.00 | 0.18 | 0.00 | 67 | 1018.1 |
| 20260507163105 | 10 | 338 | 3.2 | 9.7 | 0.00 | 0.18 | 0.00 | 65 | 1018.0 |
| 20260507162026 | 11 | 335 | 1.6 | 11.3 | 0.00 | 0.18 | 0.00 | 61 | 1018.0 |
| 20260507161048 | 12 | 234 | 1.6 | 9.7 | 0.00 | 0.20 | 0.00 | 58 | 1018.1 |
| 20260507160113 | 12 | 74 | 1.6 | 8.0 | 0.00 | 0.20 | 0.00 | 57 | 1018.1 |
| 20260507155024 | 12 | 140 | 3.2 | 8.0 | 0.00 | 0.20 | 0.00 | 58 | 1018.2 |
| 20260507154049 | 11 | 300 | 1.6 | 8.0 | 0.00 | 0.23 | 0.00 | 61 | 1017.9 |
| 20260507153058 | 11 | 3 | 4.8 | 11.3 | 0.00 | 0.23 | 0.00 | 61 | 1017.8 |
| 20260507152113 | 11 | 5 | 1.6 | 8.0 | 0.00 | 0.23 | 0.00 | 65 | 1018.0 |
| 20260507151053 | 10 | 9 | 3.2 | 9.7 | 0.00 | 0.25 | 0.00 | 67 | 1017.9 |
| 20260507150056 | 10 | 20 | 4.8 | 9.7 | 0.00 | 0.25 | 0.00 | 67 | 1017.9 |
| 20260507145140 | 10 | 55 | 4.8 | 12.9 | 0.00 | 0.28 | 0.00 | 67 | 1017.6 |
| 20260507144040 | 10 | 7 | 3.2 | 17.7 | 0.00 | 0.28 | 0.00 | 68 | 1017.7 |
| 20260507143103 | 10 | 124 | 3.2 | 12.9 | 0.00 | 0.28 | 0.00 | 68 | 1017.6 |
| 20260507142023 | 11 | 9 | 3.2 | 12.9 | 0.00 | 0.28 | 0.00 | 67 | 1017.6 |
| 20260507141048 | 10 | 141 | 1.6 | 4.8 | 0.00 | 0.28 | 0.00 | 71 | 1017.6 |
| 20260507140132 | 10 | 357 | 3.2 | 8.0 | 0.00 | 0.28 | 0.00 | 70 | 1017.6 |
| 20260507135033 | 10 | 50 | 3.2 | 8.0 | 0.00 | 0.28 | 0.00 | 68 | 1017.6 |
| 20260507134056 | 10 | 350 | 3.2 | 8.0 | 0.00 | 0.28 | 0.00 | 68 | 1017.7 |
| 20260507133104 | 10 | 314 | 3.2 | 8.0 | 0.00 | 0.28 | 0.00 | 72 | 1017.6 |
| 20260507132024 | 10 | 217 | 1.6 | 6.4 | 0.00 | 0.28 | 0.00 | 71 | 1017.5 |
| 20260507131048 | 10 | 328 | 3.2 | 9.7 | 0.00 | 0.28 | 0.00 | 72 | 1017.4 |
| 20260507130056 | 10 | 20 | 3.2 | 11.3 | 0.00 | 0.28 | 0.00 | 72 | 1017.2 |
| 20260507125141 | 10 | 62 | 4.8 | 11.3 | 0.00 | 0.28 | 0.00 | 74 | 1017.1 |
| 20260507124052 | 8 | 349 | 3.2 | 12.9 | 0.00 | 0.28 | 0.00 | 75 | 1017.2 |
| 20260507123056 | 9 | 22 | 4.8 | 14.5 | 0.00 | 0.28 | 0.00 | 74 | 1016.9 |
| 20260507122117 | 8 | 344 | 6.4 | 17.7 | 0.00 | 0.28 | 0.00 | 75 | 1016.7 |
| 20260507121112 | 9 | 349 | 4.8 | 17.7 | 0.00 | 0.28 | 0.00 | 74 | 1016.7 |
| 20260507120048 | 9 | 342 | 3.2 | 9.7 | 0.00 | 0.28 | 0.00 | 74 | 1016.7 |
| 20260507115100 | 9 | 320 | 3.2 | 12.9 | 0.00 | 0.28 | 0.00 | 74 | 1016.7 |
| 20260507114114 | 9 | 19 | 3.2 | 14.5 | 0.00 | 0.28 | 0.00 | 73 | 1016.5 |
| 20260507113033 | 10 | 308 | 1.6 | 8.0 | 0.00 | 0.28 | 0.00 | 71 | 1016.4 |
| 20260507112116 | 10 | 322 | 3.2 | 9.7 | 0.00 | 0.28 | 0.00 | 71 | 1016.5 |
| 20260507111121 | 10 | 21 | 3.2 | 9.7 | 0.00 | 0.28 | 0.00 | 72 | 1016.4 |
| 20260507110100 | 10 | 229 | 1.6 | 12.9 | 0.00 | 0.28 | 0.00 | 71 | 1016.3 |
| 20260507105103 | 10 | 333 | 3.2 | 9.7 | 0.00 | 0.30 | 0.00 | 71 | 1016.2 |
| 20260507104106 | 10 | 345 | 3.2 | 11.3 | 0.00 | 0.30 | 0.00 | 70 | 1016.2 |
| 20260507103108 | 9 | 358 | 3.2 | 11.3 | 0.00 | 0.30 | 0.00 | 72 | 1016.0 |